Location: Eimen
(51.8766°N, 9.7806°E)
Time: 04:23:18
(UTC+00:00)

Cosmos 2221 Rocket - Pass Details

Date: 13 August 2024
Orbit: 618 x 644 km, 82.5° (Epoch: 09 September)

Event Time Altitude Azimuth Distance (km) Brightness Sun altitude
Rises 02:14:54 0° 353° (N) 2,970 7.7 -14.2°
Reaches altitude 10° 02:17:15 10° 360° (N) 2,056 6.9 -13.9°
Maximum altitude 02:21:38 45° 73° (ENE) 879 4.8 -13.4°
Drops below altitude 10° 02:26:00 10° 147° (SSE) 2,036 6.1 -13.0°
Sets 02:28:18 0° 154° (SSE) 2,938 6.8 -12.7°
